Tracking 25734 objects as of 26-May-2022
HD Live streaming from Space Station
objects crossing your sky now

SL-16 DEB

Track SL-16 DEB now!
10-day predictions


NORAD ID: 42255
Int'l Code: 1993-016DK
Perigee: 827.6 km
Apogee: 844.6 km
Inclination: 71.0 °
Period: 101.5 minutes
Semi major axis: 7207 km
RCS: Unknown
Launch date: March 26, 1993
Source: Commonwealth of Independent States (former USSR) (CIS)
Launch site: PLESETSK MISSILE AND SPACE COMPLEX (PKMTR)

Note: This is SATELLITE DEBRIS
aabbcc
Your satellite tracking list
Your tracking list is empty




NASA's NSSDC Master Catalog

Two Line Element Set (TLE):
1 42255U 93016DK  22146.12167185  .00000838  00000-0  42458-3 0  9998
2 42255  71.0075 199.2535 0011842 242.1379 147.6834 14.18932204440362
Source of the keplerian elements: AFSPC